Columbus, MS

3:00 AM CST on December 05, 2016 (GMT -0600)
Columbus Air Force Base

Weather History for KCBM - May, 2013

Change the Weather History Date:

Wednesday, May 22, 2013

  Actual Average Record
Temperature  
Mean Temperature 72 °F -  
Max Temperature 81 °F 81 °F 89 °F (1998)
Min Temperature 64 °F 61 °F 44 °F (2002)
Cooling Degree Days 8    
Growing Degree Days 22 (Base 50)    
Moisture  
Dew Point 66 °F    
Average Humidity 91    
Maximum Humidity 100    
Minimum Humidity 61    
Precipitation  
Precipitation 0.85 in - - ()
Sea Level Pressure  
Sea Level Pressure 29.93 in    
Wind  
Wind Speed 9 mph (West)    
Max Wind Speed 22 mph    
Max Gust Speed 30 mph    
Visibility 6 miles    
Events Fog , Rain , Thunderstorm    
Averages and records for this station are not official NWS values.
T = Trace of Precipitation, MM = Missing Value Source: NWS Daily Summary

Daily Weather History Graph

Daily Weather History Graph

Search for Another Location

Airport or City:

Trip Planner

Search our weather history database for the weather conditions in past years. The results will help you decide how hot, cold, wet, or windy it might be!

Date:

Astronomy

May. 22, 2013 Rise Set
Actual Time 5:48 AM CDT 7:52 PM CDT
Civil Twilight 5:20 AM CDT 8:20 PM CDT
Nautical Twilight 4:46 AM CDT 8:54 PM CDT
Astronomical Twilight 4:10 AM CDT 9:31 PM CDT
Moon 5:20 PM CDT (5/22) 3:44 AM CDT (5/22)
Length of Visible Light 15h 00m
Length of Day
14h 04m
Waxing Gibbous, 91% of the Moon is Illuminated
May 22
Waxing Gibbous
May 24
Full
May 31
Last Quarter
Jun 8
New
Jun 16
First Quarter

Hourly Weather History & Observations

Time (CDT) Temp. Heat Index Dew Point Humidity Pressure Visibility Wind Dir Wind Speed Gust Speed Precip Events Conditions
12:58 AM 75.7 °F - 66.4 °F 73% 29.91 in 10.0 mi SSW 8.1 mph - N/A   Partly Cloudy
1:10 AM 77.0 °F - 66.2 °F 69% 29.94 in 10.0 mi WNW 21.9 mph 29.9 mph N/A   Mostly Cloudy
1:20 AM 71.6 °F - 62.6 °F 73% 29.95 in 10.0 mi NW 18.4 mph 28.8 mph N/A   Overcast
1:28 AM 69.8 °F - 62.6 °F 78% 29.96 in 10.0 mi NW 16.1 mph 24.2 mph N/A Thunderstorm Thunderstorm
1:30 AM 69.8 °F - 62.6 °F 78% 29.96 in 6.0 mi WNW 16.1 mph 24.2 mph N/A Rain , Thunderstorm Light Thunderstorms and Rain
1:35 AM 68.0 °F - 64.4 °F 88% 29.97 in 1.0 mi NW 10.4 mph 24.2 mph N/A Rain , Thunderstorm Heavy Thunderstorms and Rain
1:36 AM 68.0 °F - 64.4 °F 88% 29.97 in 0.8 mi NNW 9.2 mph - N/A Rain , Thunderstorm Heavy Thunderstorms and Rain
1:41 AM 68.0 °F - 64.4 °F 88% 29.96 in 0.8 mi NNW 13.8 mph - N/A Rain , Thunderstorm Heavy Thunderstorms and Rain
1:46 AM 66.2 °F - 64.4 °F 94% 29.96 in 1.8 mi NNW 17.3 mph - N/A Rain , Thunderstorm Heavy Thunderstorms and Rain
1:51 AM 66.2 °F - 64.4 °F 94% 29.97 in 3.0 mi NW 13.8 mph - N/A Rain , Thunderstorm Heavy Thunderstorms and Rain
1:56 AM 66.2 °F - 64.4 °F 94% 29.97 in 4.0 mi NW 17.3 mph 20.7 mph N/A Rain , Thunderstorm Thunderstorms and Rain
1:58 AM 66.2 °F - 64.9 °F 96% 29.98 in 4.0 mi NW 16.1 mph 20.7 mph 0.48 in Rain , Thunderstorm Thunderstorms and Rain
2:03 AM 66.2 °F - 64.4 °F 94% 29.97 in 3.0 mi NW 12.7 mph 20.7 mph N/A Rain , Thunderstorm Heavy Thunderstorms and Rain
2:08 AM 66.2 °F - 64.4 °F 94% 29.96 in 4.0 mi NNW 10.4 mph 18.4 mph N/A Rain , Thunderstorm Heavy Thunderstorms and Rain
2:13 AM 64.4 °F - 64.4 °F 100% 29.96 in 7.0 mi NNW 10.4 mph - N/A Rain , Thunderstorm Light Thunderstorms and Rain
2:16 AM 64.4 °F - 64.4 °F 100% 29.95 in 8.0 mi North 10.4 mph - N/A Rain Rain
2:46 AM 64.4 °F - 62.6 °F 94% 29.93 in 10.0 mi NNE 12.7 mph - N/A Rain Light Rain
2:58 AM 64.4 °F - 63.3 °F 96% 29.95 in 9.0 mi NNE 11.5 mph - 0.17 in Rain Light Rain
3:03 AM 64.4 °F - 62.6 °F 94% 29.94 in 10.0 mi NNE 11.5 mph - N/A Rain Light Rain
3:08 AM 64.4 °F - 62.6 °F 94% 29.93 in 10.0 mi NNE 11.5 mph - N/A Rain Light Rain
3:23 AM 64.4 °F - 64.4 °F 100% 29.93 in 10.0 mi ENE 6.9 mph - N/A Rain Light Rain
3:28 AM 64.4 °F - 64.4 °F 100% 29.93 in 10.0 mi ENE 5.8 mph - N/A Rain Light Rain
3:38 AM 64.4 °F - 64.4 °F 100% 29.93 in 10.0 mi SE 2.3 mph - N/A Rain Light Rain
3:43 AM 64.4 °F - 64.4 °F 100% 29.93 in 10.0 mi ENE 1.2 mph - N/A Rain Light Rain
3:53 AM 64.4 °F - 64.4 °F 100% 29.93 in 10.0 mi SE 3.5 mph - N/A Rain Light Rain
3:54 AM 64.4 °F - 64.4 °F 100% 29.93 in 10.0 mi SE 3.5 mph - N/A   Mostly Cloudy
3:58 AM 64.8 °F - 64.4 °F 99% 29.94 in 10.0 mi SE 3.5 mph - 0.03 in   Scattered Clouds
4:00 AM 64.4 °F - 64.4 °F 100% 29.93 in 10.0 mi SE 5.8 mph - N/A Rain Light Rain
4:20 AM 64.4 °F - 64.4 °F 100% 29.91 in 10.0 mi ESE 4.6 mph - N/A   Partly Cloudy
4:58 AM 65.3 °F - 65.3 °F 100% 29.90 in 10.0 mi SSE 10.4 mph - 0.02 in   Partly Cloudy
5:26 AM 66.2 °F - 66.2 °F 100% 29.90 in 10.0 mi SSE 3.5 mph - N/A Rain Light Rain
5:57 AM 66.2 °F - 64.4 °F 94% 29.86 in 10.0 mi SE 10.4 mph - N/A   Light Drizzle
5:58 AM 65.5 °F - 65.3 °F 99% 29.86 in 10.0 mi SE 8.1 mph - 0.02 in   Light Drizzle
6:03 AM 66.2 °F - 64.4 °F 94% 29.86 in 10.0 mi SE 10.4 mph - N/A   Partly Cloudy
6:58 AM 66.2 °F - 65.3 °F 97% 29.91 in 10.0 mi WNW 11.5 mph - 0.00 in   Scattered Clouds
7:58 AM 67.6 °F - 66.0 °F 95% 29.92 in 10.0 mi WSW 5.8 mph - N/A   Partly Cloudy
8:36 AM 68.0 °F - 66.2 °F 94% 29.93 in 10.0 mi SSW 4.6 mph - N/A   Partly Cloudy
8:58 AM 68.2 °F - 66.6 °F 95% 29.93 in 10.0 mi South 5.8 mph - N/A   Partly Cloudy
9:58 AM 69.6 °F - 65.7 °F 87% 29.95 in 10.0 mi SSW 6.9 mph - N/A   Partly Cloudy
10:58 AM 71.8 °F - 65.3 °F 80% 29.94 in 10.0 mi SSW 4.6 mph - N/A   Partly Cloudy
11:58 AM 75.7 °F - 65.8 °F 71% 29.94 in 10.0 mi SW 8.1 mph - N/A   Scattered Clouds
12:58 PM 75.7 °F - 65.1 °F 69% 29.91 in 10.0 mi SW 5.8 mph - N/A   Scattered Clouds
1:58 PM 77.4 °F - 65.1 °F 66% 29.93 in 10.0 mi SW 10.4 mph - N/A   Scattered Clouds
2:58 PM 78.4 °F - 66.0 °F 66% 29.92 in 10.0 mi WSW 5.8 mph - N/A   Mostly Cloudy
3:58 PM 79.2 °F - 64.9 °F 62% 29.89 in 10.0 mi WSW 8.1 mph - N/A   Partly Cloudy
4:58 PM 80.6 °F 82.7 °F 65.8 °F 61% 29.88 in 10.0 mi SSW 9.2 mph - N/A   Partly Cloudy
5:58 PM 81.0 °F 83.4 °F 67.5 °F 63% 29.88 in 10.0 mi SW 6.9 mph - N/A   Clear
6:58 PM 76.6 °F - 66.9 °F 72% 29.88 in 10.0 mi SW 3.5 mph - N/A   Scattered Clouds
7:01 PM 77.0 °F - 68.0 °F 74% 29.88 in 7.0 mi West 4.6 mph - N/A Rain Light Rain
7:05 PM 75.2 °F - 68.0 °F 78% 29.88 in 1.8 mi North 10.4 mph - N/A Rain Rain
7:10 PM 75.2 °F - 68.0 °F 78% 29.88 in 1.2 mi NW 4.6 mph - N/A Rain Heavy Rain
7:15 PM 73.4 °F - 68.0 °F 83% 29.88 in 4.0 mi Variable 1.2 mph - N/A Rain Light Rain
7:20 PM 73.4 °F - 68.0 °F 83% 29.88 in 10.0 mi West 6.9 mph - N/A Rain Light Rain
7:25 PM 75.2 °F - 68.0 °F 78% 29.88 in 10.0 mi West 3.5 mph - N/A   Scattered Clouds
7:58 PM 71.4 °F - 68.0 °F 89% 29.91 in 10.0 mi WNW 2.3 mph - 0.13 in   Clear
8:58 PM 69.4 °F - 68.9 °F 98% 29.92 in 10.0 mi Calm Calm - N/A   Clear
9:48 PM 68.0 °F - 68.0 °F 100% 29.92 in 1.2 mi Calm Calm - N/A   Clear
9:53 PM 68.0 °F - 68.0 °F 100% 29.92 in 0.8 mi Calm Calm - N/A   Clear
9:58 PM 67.3 °F - 67.3 °F 100% 29.94 in 0.8 mi Calm Calm - N/A   Clear
10:03 PM 68.0 °F - 68.0 °F 100% 29.93 in 0.8 mi Calm Calm - N/A   Clear
10:13 PM 66.2 °F - 66.2 °F 100% 29.93 in 0.8 mi Calm Calm - N/A   Clear
10:18 PM 66.2 °F - 66.2 °F 100% 29.93 in 0.5 mi Calm Calm - N/A Fog Fog
10:23 PM 68.0 °F - 68.0 °F 100% 29.93 in 0.8 mi Calm Calm - N/A   Clear
10:28 PM 68.0 °F - 68.0 °F 100% 29.93 in 0.8 mi Calm Calm - N/A   Clear
10:33 PM 68.0 °F - 68.0 °F 100% 29.93 in 0.8 mi Calm Calm - N/A   Clear
10:38 PM 66.2 °F - 66.2 °F 100% 29.93 in 0.5 mi Calm Calm - N/A Fog Fog
10:43 PM 66.2 °F - 66.2 °F 100% 29.94 in 0.5 mi Calm Calm - N/A Fog Fog
10:48 PM 66.2 °F - 66.2 °F 100% 29.94 in 0.8 mi Calm Calm - N/A   Clear
10:53 PM 66.2 °F - 66.2 °F 100% 29.94 in 2.5 mi Calm Calm - N/A   Clear
10:58 PM 66.4 °F - 66.4 °F 100% 29.95 in 9.0 mi Calm Calm - N/A   Clear
11:08 PM 66.2 °F - 66.2 °F 100% 29.94 in 1.0 mi Calm Calm - N/A   Clear
11:13 PM 66.2 °F - 66.2 °F 100% 29.94 in 0.5 mi Calm Calm - N/A Fog Fog
11:28 PM 64.4 °F - 64.4 °F 100% 29.94 in 0.8 mi Calm Calm - N/A   Clear
11:33 PM 64.4 °F - 64.4 °F 100% 29.94 in 0.5 mi Calm Calm - N/A Fog Fog
11:38 PM 64.4 °F - 64.4 °F 100% 29.94 in 0.2 mi Calm Calm - N/A Fog Fog
11:48 PM 66.2 °F - 66.2 °F 100% 29.94 in 0.5 mi Calm Calm - N/A Fog Fog
11:53 PM 66.2 °F - 66.2 °F 100% 29.94 in 0.5 mi Calm Calm - N/A Fog Fog
11:58 PM 65.8 °F - 65.8 °F 100% 29.95 in 0.5 mi Calm Calm - N/A Fog Fog